This is the latest recevied weather packets stored in our database for station/object KB8SSH. If no packets are shown the sender has not sent any weather packets the latest 10 day(s).
| Time | Temp. | Humidity | Pressure | Rain* | Wind** | Luminosity | Snow |
|---|---|---|---|---|---|---|---|
| 1777485164 | 13.33° C | 99% | 1042.1 hPa | 0 mm | - | 65 W/m² | - |
| 1777484860 | 13.33° C | 99% | 1042.1 hPa | 0 mm | - | 164 W/m² | - |
| 1777484558 | 13.33° C | 99% | 1041.8 hPa | 0 mm | - | 308 W/m² | - |
| 1777484255 | 13.33° C | 99% | 1042.1 hPa | 1.78 mm | - | 94 W/m² | - |
| 1777483950 | 13.33° C | 99% | 1041.8 hPa | 3.05 mm | - | 142 W/m² | - |
| 1777483647 | 13.33° C | 99% | 1042.1 hPa | 1.27 mm | - | 236 W/m² | - |
| 1777483342 | 13.33° C | 99% | 1042.6 hPa | 3.56 mm | - | 74 W/m² | - |
| 1777483038 | 12.78° C | 99% | 1042.6 hPa | 3.56 mm | - | 80 W/m² | - |
| 1777482735 | 13.33° C | 99% | 1042.6 hPa | 1.27 mm | - | 105 W/m² | - |
| 1777482431 | 13.33° C | 99% | 1042.6 hPa | 1.27 mm | - | 92 W/m² | - |
| 1777482129 | 13.33° C | 99% | 1042.6 hPa | 1.78 mm | - | 97 W/m² | - |
| 1777481827 | 13.33° C | 99% | 1042.6 hPa | 3.05 mm | - | 150 W/m² | - |
| 1777481523 | 13.33° C | 99% | 1042.6 hPa | 1.27 mm | - | 110 W/m² | - |
| 1777481220 | 13.33° C | 99% | 1042.6 hPa | 3.05 mm | - | 78 W/m² | - |
| 1777480916 | 13.33° C | 99% | 1042.1 hPa | 3.05 mm | - | 99 W/m² | - |
| 1777480613 | 13.33° C | 99% | 1042.6 hPa | 1.27 mm | - | 134 W/m² | - |
| 1777480310 | 13.33° C | 99% | 1042.6 hPa | 0 mm | - | 75 W/m² | - |
| 1777480006 | 13.33° C | 99% | 1042.6 hPa | 1.78 mm | - | 89 W/m² | - |
| 1777479703 | 13.33° C | 99% | 1042.6 hPa | 1.78 mm | - | 92 W/m² | - |
| 1777479401 | 13.33° C | 99% | 1042.6 hPa | 1.27 mm | - | 107 W/m² | - |
| 1777479097 | 12.78° C | 99% | 1042.9 hPa | 1.78 mm | - | 63 W/m² | - |
| 1777478794 | 12.78° C | 99% | 1042.6 hPa | 4.83 mm | - | 54 W/m² | - |
| 1777478490 | 12.78° C | 99% | 1042.9 hPa | 4.32 mm | - | 60 W/m² | - |
| 1777478187 | 12.78° C | 99% | 1042.9 hPa | 6.1 mm | - | 37 W/m² | - |
| 1777477883 | 12.78° C | 99% | 1042.9 hPa | 7.87 mm | - | 30 W/m² | - |
* Rain latest hour (hover to see other rain measurements)
** Current wind speed in m/s (hover to see current wind gust speed)